Weather Roundup
Issued by NWS Corpus Christi, TX

Home | Current Version | Previous Version | Text Only | Print | Product List | Glossary On
Versions: 1 2 3 4 5 6 7 8 9 10 11 12 13 14 15 16 17 18 19 20 21 22 23 24 25 26 27 28 29 30 31 32 33 34 35 36 37 38 39 40 41 42 43 44 45 46 47 48 49 50
000
ASUS44 KCRP 251810
HRRCRP

SOUTH TEXAS REGIONAL WEATHER ROUNDUP
NATIONAL WEATHER SERVICE CORPUS CHRISTI TX
100 PM CDT SAT OCT 25 2014


TXZ229>244-251900-
...CORPUS CHRISTI AREA OBSERVATIONS...

CITY           SKY/WX    TMP DP  RH WIND       PRES   REMARKS
CORPUS CHRISTI SUNNY     82  63  52 E6        30.15F
NAS CORPUS CHR SUNNY     81  66  60 N8        30.15F
ROCKPORT       SUNNY     80  64  58 VRB6      30.15F
KINGSVILLE NAS SUNNY     84  65  52 SE3       30.15F
ALICE          SUNNY     85  61  44 VRB3      30.14F
FALFURRIAS     SUNNY     83  61  48 SE3       30.14F
$$

...VICTORIA AREA OBSERVATIONS...

CITY           SKY/WX    TMP DP  RH WIND       PRES   REMARKS
VICTORIA       SUNNY     83  58  42 VRB3      30.16F
BEEVILLE       FAIR      84  58  40 NE3       30.15F
PLEASANTON     SUNNY     84  55  36 S6        30.16F
SAN ANTONIO    SUNNY     83  56  39 VRB7      30.17F
$$

...LAREDO AREA OBSERVATIONS...

CITY           SKY/WX    TMP DP  RH WIND       PRES   REMARKS
LAREDO         SUNNY     85  61  44 S6        30.17F
COTULLA        SUNNY     86  58  38 MISG      30.15F
DEL RIO        SUNNY     82  65  56 SE10      30.14F
MCALLEN        SUNNY     81  63  54 CALM      30.15F
HEBBRONVILLE   SUNNY     84  54  36 E5        30.16F
$$

...OTHER TEXAS OBSERVATIONS...

CITY           SKY/WX    TMP DP  RH WIND       PRES   REMARKS
BROWNSVILLE    SUNNY     84  66  54 CALM      30.14F
HOUSTON        SUNNY     79  56  45 CALM      30.15F
COL. STATION   SUNNY     81  59  47 CALM      30.16F
AUSTIN         SUNNY     83  59  44 SW9       30.15F
WACO           SUNNY     83  61  47 S8        30.14F
FORT WORTH     SUNNY     82  61  48 S6        30.12F
WICHITA FALLS  SUNNY     86  58  38 W10       30.10F
LUBBOCK        SUNNY     81  54  39 SW10      30.19F
EL PASO        SUNNY     77  50  38 CALM      30.24F
$$

...MARINE OBSERVATIONS...

STATION/POSITION TIME  SKY/WX   TEMP    WIND        PRES    VSBY  WAVE   SWELL
                                AIR SEA DIR/SP/G                  HT/PER HT/PER
                 (UTC)          (F)     (DEG/KT/KT) (MB)    (MI)  (FT/S) (FT/S)
PORT ARANSAS     1800            75 79   50/  8/  8 1022.0F
BUOY 90 E PORT A 1800            76 81   40/  6/  8 1021.6F         2/ 6   2/ 6
BUOY 45 SE BAFFI 1800            78 80   70/  4/  8 1020.7F         3/ 8   2/ 8
BUOY 200 E PT IS 1800            77 81   50/  6/  8 1020.0F         3/ 8   3/ 8
BUOY 15 E GALVES 1800            72 77   80/  6/  8 1021.1F         2/ 7   2/ 7
$$



USA.gov is the U.S. government's official web portal to all federal, state and local government web resources and services.